York, PA

6:21 AM EST on December 13, 2019 (GMT -0500)
York

Weather History for KTHV - October, 2019

Change the Weather History Date:

Monday, October 7, 2019

  Actual Average Record
Temperature  
Mean Temperature 64 °F -  
Max Temperature 72 °F 0 °F 86 °F (1997)
Min Temperature 57 °F - 28 °F (2001)
Growing Degree Days 14 (Base 50)    
Moisture  
Dew Point 57 °F    
Average Humidity 83    
Maximum Humidity 94    
Minimum Humidity 63    
Precipitation  
Precipitation 0.60 in - - ()
Sea Level Pressure  
Sea Level Pressure 30.14 in    
Wind  
Wind Speed 5 mph ()    
Max Wind Speed 14 mph    
Max Gust Speed 22 mph    
Visibility 6.0 miles    
Events Rain    
Averages and records for this station are not official NWS values.
T = Trace of Precipitation, MM = Missing Value Source: Averaged Metar Reports

Daily Weather History Graph

Daily Weather History Graph

Search for Another Location

Airport or City:

Astronomy

Oct. 07, 2019 Rise Set
Actual Time 7:09 AM EDT 6:40 PM EDT
Civil Twilight 6:42 AM EDT 7:07 PM EDT
Nautical Twilight 6:11 AM EDT 7:38 PM EDT
Astronomical Twilight 5:39 AM EDT 8:10 PM EDT
Moon 4:00 PM EDT (10/7) 1:00 AM EDT (10/7)
Length of Visible Light 12h 25m
Length of Day
11h 31m
Waxing Gibbous, 69% of the Moon is Illuminated
Oct 7
Waxing Gibbous
Oct 13
Full
Oct 21
Last Quarter
Oct 27
New
Nov 4
First Quarter

Hourly Weather History & Observations

Time (EDT) Temp. Dew Point Humidity Pressure Visibility Wind Dir Wind Speed Gust Speed Precip Events Conditions
12:53 AM 66.9 °F 60.1 °F 79% 30.17 in 10.0 mi Variable 4.6 mph - N/A   Partly Cloudy
1:53 AM 66.9 °F 60.1 °F 79% 30.15 in 10.0 mi Variable 4.6 mph - N/A   Mostly Cloudy
2:53 AM 66.9 °F 60.1 °F 79% 30.13 in 10.0 mi Variable 4.6 mph - N/A   Overcast
3:53 AM 66.9 °F 59.0 °F 76% 30.12 in 10.0 mi SSW 8.1 mph - N/A   Overcast
5:53 AM 66.9 °F 57.9 °F 73% 30.12 in 10.0 mi Variable 5.8 mph 17.3 mph N/A   Overcast
6:53 AM 66.9 °F 57.9 °F 73% 30.12 in 10.0 mi Variable 6.9 mph - N/A   Mostly Cloudy
7:53 AM 68.0 °F 57.9 °F 70% 30.13 in 10.0 mi South 9.2 mph - N/A   Overcast
8:53 AM 68.0 °F 57.9 °F 70% 30.13 in 10.0 mi South 11.5 mph 21.9 mph N/A   Overcast
9:53 AM 69.1 °F 57.9 °F 68% 30.13 in 10.0 mi SSW 9.2 mph - N/A   Overcast
10:53 AM 69.1 °F 59.0 °F 70% 30.12 in 10.0 mi SSW 9.2 mph - N/A   Overcast
11:53 AM 70.0 °F 59.0 °F 68% 30.11 in 10.0 mi SSW 6.9 mph - 0.00 in   Overcast
12:53 PM 71.1 °F 57.9 °F 63% 30.11 in 10.0 mi SSW 9.2 mph - N/A   Overcast
1:53 PM 71.1 °F 57.9 °F 63% 30.09 in 10.0 mi WSW 9.2 mph - 0.00 in Rain Light Rain
2:53 PM 70.0 °F 62.1 °F 76% 30.08 in 10.0 mi Calm Calm - 0.00 in Rain Light Rain
3:53 PM 72.0 °F 61.0 °F 68% 30.06 in 10.0 mi Variable 3.5 mph - 0.00 in   Overcast
4:45 PM 68.0 °F 62.1 °F 81% 30.07 in 2.0 mi Calm Calm - 0.03 in Rain Light Rain
4:53 PM 68.0 °F 63.0 °F 84% 30.07 in 2.0 mi Calm Calm - 0.05 in Rain Rain
4:55 PM 68.0 °F 63.0 °F 84% 30.07 in 3.0 mi NW 3.5 mph - 0.00 in Rain Light Rain
5:16 PM 64.9 °F 61.0 °F 87% 30.08 in 5.0 mi NNW 11.5 mph - 0.01 in Rain Light Rain
5:33 PM 62.1 °F 59.0 °F 90% 30.09 in 10.0 mi North 13.8 mph - 0.01 in   Overcast
5:47 PM 60.8 °F 55.4 °F 82% 30.10 in 2.5 mi NNW 8.1 mph 18.4 mph 0.04 in Rain Rain
5:53 PM 60.1 °F 55.9 °F 86% 30.11 in 2.0 mi North 6.9 mph - 0.06 in Rain Rain
6:01 PM 60.1 °F 55.9 °F 86% 30.11 in 2.0 mi North 9.2 mph - 0.03 in Rain Rain
6:05 PM 59.0 °F 55.9 °F 90% 30.12 in 3.0 mi North 6.9 mph - 0.03 in Rain Light Rain
6:12 PM 59.0 °F 55.9 °F 90% 30.12 in 2.0 mi NNW 4.6 mph - 0.06 in Rain Heavy Rain
6:32 PM 59.0 °F 55.9 °F 90% 30.12 in 2.5 mi North 6.9 mph - 0.12 in Rain Rain
6:41 PM 59.0 °F 55.9 °F 90% 30.12 in 5.0 mi North 4.6 mph - 0.13 in Rain Light Rain
6:53 PM 59.0 °F 55.9 °F 90% 30.13 in 10.0 mi North 6.9 mph - 0.13 in Rain Light Rain
7:53 PM 59.0 °F 55.9 °F 90% 30.16 in 3.0 mi NNW 5.8 mph - 0.05 in Rain Rain
7:55 PM 59.0 °F 55.9 °F 90% 30.16 in 2.5 mi NNW 6.9 mph - 0.01 in Rain Rain
7:58 PM 59.0 °F 55.9 °F 90% 30.16 in 2.0 mi NNW 5.8 mph - 0.02 in Rain Heavy Rain
8:17 PM 57.9 °F 55.9 °F 93% 30.17 in 2.5 mi NNW 5.8 mph - 0.07 in Rain Light Rain
8:21 PM 57.9 °F 55.9 °F 93% 30.17 in 3.0 mi NW 3.5 mph - 0.07 in Rain Light Rain
8:28 PM 57.9 °F 55.0 °F 90% 30.18 in 4.0 mi WNW 4.6 mph - 0.07 in Rain Light Rain
8:41 PM 57.9 °F 55.0 °F 90% 30.19 in 2.5 mi NNW 5.8 mph - 0.10 in Rain Rain
8:45 PM 57.9 °F 55.0 °F 90% 30.18 in 2.0 mi NNW 4.6 mph - 0.12 in Rain Heavy Rain
8:49 PM 57.2 °F 55.4 °F 94% 30.18 in 2.0 mi NNE 4.6 mph - 0.13 in Rain Rain
8:53 PM 57.9 °F 55.0 °F 90% 30.18 in 2.0 mi North 4.6 mph - 0.14 in Rain Rain
8:57 PM 57.9 °F 55.0 °F 90% 30.18 in 3.0 mi North 4.6 mph - 0.01 in Rain Rain
9:06 PM 57.9 °F 55.0 °F 90% 30.18 in 4.0 mi North 3.5 mph - 0.03 in Rain Rain
9:53 PM 57.9 °F 55.0 °F 90% 30.20 in 5.0 mi Calm Calm - 0.06 in Rain Light Rain
10:53 PM 57.9 °F 55.0 °F 90% 30.20 in 5.0 mi North 3.5 mph - 0.09 in Rain Light Rain
11:40 PM 57.0 °F 55.0 °F 93% 30.19 in 10.0 mi Variable 3.5 mph - 0.02 in   Overcast
11:53 PM 57.0 °F 55.0 °F 93% 30.19 in 10.0 mi NNW 3.5 mph - 0.02 in   Overcast